Regional Weather Roundup
Issued by NWS

Home | Current Version | Previous Version | Text Only | Print | Product List | Glossary Off
Versions: 1 2 3 4 5 6 7 8 9 10 11 12 13 14 15 16 17 18 19 20 21 22 23 24 25 26 27 28 29 30 31 32 33 34 35 36 37 38 39 40 41 42 43 44 45 46 47 48 49 50

000
ASUS43 KOAX 171310
RWRNE

WEATHER ROUNDUP FOR NEBRASKA
NATIONAL WEATHER SERVICE OMAHA NE
800 AM CDT THU APR 17 2014

NOTES: SATELLITE DATA IS BEING USED TO AUGMENT CLOUD COVER ABOVE
       12000 FEET.
       "FAIR" INDICATES FEW OR NO CLOUDS BELOW 12,000 FEET WITH NO
       SIGNIFICANT WEATHER AND/OR OBSTRUCTIONS TO VISIBILITY.

  * THESE STATIONS DO NOT REPORT WEATHER SUCH AS RAIN...SNOW OR FOG.

NEZ001>004-019>022-054>056-171400-
NEBRASKA PANHANDLE

CITY           SKY/WX    TMP DP  RH WIND       PRES   REMARKS
SCOTTSBLUFF    CLOUDY    33  30  88 SE9       30.15R WCI  25
ALLIANCE       CLOUDY    31  28  89 S6        30.16S WCI  25
CHADRON        MOCLDY    34  30  85 E3        30.15S
KIMBALL        SNOW      31  30  95 SE14      30.10R VSB<1/4 WCI  21
SIDNEY         FOG       31  30  96 SE13      30.16R VSB 1/4 WCI  21
$$

NEZ057>060-069>072-079>082-171400-
SOUTHWEST NEBRASKA

CITY           SKY/WX    TMP DP  RH WIND       PRES   REMARKS
NORTH PLATTE   CLOUDY    29  23  78 NE3       30.24R
IMPERIAL       CLOUDY    30  26  85 NE5       30.22R FOG     WCI  25
LEXINGTON      CLOUDY    30  25  81 NE6       30.28R WCI  24
MCCOOK         CLOUDY    31  25  78 E7        30.28R WCI  24
OGALLALA       CLOUDY    31  27  82 S3        30.22R
$$

NEZ005>010-023>029-035>040-094-171400-
NORTH CENTRAL NEBRASKA

CITY           SKY/WX    TMP DP  RH WIND       PRES   REMARKS
VALENTINE      PTSUNNY   24  21  88 S3        30.26R
AINSWORTH      SUNNY     25  22  91 CALM      30.27R
BROKEN BOW     CLOUDY    28  22  78 N13       30.25R WCI  17
O`NEILL        SUNNY     27  22  83 NW8       30.29R WCI  18
ORD            SUNNY     30  22  72 N9        30.27R WCI  22
THEDFORD       MOSUNNY   26  23  85 CALM      30.27R
$$

NEZ041-046>049-061>064-073>077-083>087-171400-
SOUTH CENTRAL NEBRASKA

CITY           SKY/WX    TMP DP  RH WIND       PRES   REMARKS
GRAND ISLAND   CLOUDY    32  23  69 N10       30.30R WCI  24
AURORA         CLOUDY    32  26  78 N10       30.29R WCI  24
HASTINGS       CLOUDY    31  24  75 NE12      30.28R WCI  22
HEBRON         CLOUDY    33  25  73 N13       30.28R WCI  24
HOLDREGE       CLOUDY    31  25  77 NE9       30.28R WCI  23
KEARNEY *      CLOUDY    30  25  80 NE10      30.29R WCI  21
YORK           CLOUDY    32  25  74 N14G20    30.29R WCI  22
$$

NEZ011>018-030>034-042>045-171400-
NORTHEAST NEBRASKA

CITY           SKY/WX    TMP DP  RH WIND       PRES   REMARKS
NORFOLK        MOSUNNY   31  22  69 N10       30.29R WCI  22
ALBION         MOSUNNY   30  22  72 N5        30.29R WCI  25
BLAIR          CLOUDY    31  24  76 NW13G20   30.28R WCI  21
COLUMBUS *     CLOUDY    30  19  64 N10       30.31R WCI  21
FREMONT        CLOUDY    32  24  74 N10       30.30R WCI  23
TEKAMAH        CLOUDY    32  24  72 NW12      30.31R WCI  23
$$

NEZ050>053-065>068-078-088>093-171400-
SOUTHEAST NEBRASKA

CITY           SKY/WX    TMP DP  RH WIND       PRES   REMARKS
LINCOLN        CLOUDY    34  24  67 N15       30.31R WCI  24
OMAHA EPPLEY   CLOUDY    33  24  69 N17       30.29R WCI  22
BEATRICE       CLOUDY    33  25  72 N16       30.27S WCI  22
FALLS CITY     CLOUDY    35  27  72 NW9       30.28R WCI  28
NEBRASKA CITY  CLOUDY    33  26  78 N15       30.28R WCI  22
PLATTSMOUTH    CLOUDY    32  24  72 NW13G18   30.28R WCI  23
$$

NEZ044-045-051>053-067-171400-
OMAHA AREA

CITY           SKY/WX    TMP DP  RH WIND       PRES   REMARKS
OMAHA EPPLEY   CLOUDY    33  24  69 N17       30.29R WCI  22
BLAIR          CLOUDY    31  24  76 NW13G20   30.28R WCI  21
FREMONT        CLOUDY    32  24  74 N10       30.30R WCI  23
MILLARD        CLOUDY    32  24  73 N7        30.29R WCI  26
OFFUTT AFB     CLOUDY    33  26  76 N7        30.29R WCI  27
PLATTSMOUTH    CLOUDY    32  24  72 NW13G18   30.28R WCI  23
WAHOO          CLOUDY    32  23  70 N14G20    30.29S WCI  22
$$



USA.gov is the U.S. government's official web portal to all federal, state and local government web resources and services.